Weather in Rovereto

Italy     45°53′09″N   11°01′58″E
temp.,
°C
wind,
m/s
gust,
m/s
humid.,
%
clouds,
%
prec.,
mm/h
press.,
hPa
HPBL,
m
19 april, mon
mon1923:00+3s1188100 0.0 101822
02:00+3ene1193100 0.1 101834
05:00+2nne1196100 0.2 101843
08:00+3nne2386100 0.4 1017263
11:00+7ne1249100 0.0 1016942
14:00+11s1136100 0.1 10141792
17:00+9sw4459100 0.4 1013830
20:00+5sw1182100 1.2 101518
20 april, tue
tue2023:00+3nnw118583 0.0 101612
02:00+1n22855 0.0 101727
05:000nne22855 0.0 101836
08:00+2nne2372100 0.0 1018187
11:00+10ene11446 0.0 1015787
14:00+13ssw213512 0.1 10131887
17:00+12ssw434523 0.3 10121575
20:00+6s228048 0.8 101526
21 april, wed
wed2123:00+4nw009252 0.4 101811
02:00+3n119445 0.6 101810
05:00+3nne119254 0.1 101828
08:00+4ne1187100 0.1 1019147
11:00+6ne128577 0.1 1019216
14:00+11s336158 0.9 10161550
17:00+11ssw345535 0.7 10151497
20:00+6ssw227948 0.8 101726
22 april, thu
thu2223:00+4wnw00929 0.0 101910
02:00+3n119398 0.0 101910
05:00+2nne1193100 0.0 101910
08:00+5ne118067 0.0 1019156
11:00+12sse115413 0.0 10161103
14:00+12sw325393 0.2 10141441
17:00+13ssw335151 0.2 10121546
20:00+8sw248229 0.4 101485
23 april, fri
fri2323:00+6n229382 0.4 101657
02:00+6nne249099 0.4 1016197
05:00+4nne258392 0.0 1018189
08:00+4nne247289 0.0 1019263
11:00+10ene12445 0.0 10191066
14:00+12se324840 0.0 10171473
17:00+9ssw436781 0.0 1019896
20:00+7ssw238082 0.0 1021363